This is the latest recevied weather packets stored in our database for station/object KP4OZ. If no packets are shown the sender has not sent any weather packets the latest 1 day(s).
| Time | Temp. | Humidity | Pressure | Rain* | Wind** | Luminosity | Snow |
|---|---|---|---|---|---|---|---|
| 1778068131 | 28.33° C | 73% | 1018.7 hPa | 0 mm | - | - | - |
| 1778067224 | 27.22° C | 77% | 1018.5 hPa | 0 mm | - | - | - |
| 1778066618 | 27.22° C | 78% | 1018.4 hPa | 0 mm | - | - | - |
| 1778066315 | 27.22° C | 78% | 1018.5 hPa | 0 mm | - | - | - |
| 1778064801 | 26.11° C | 81% | 1018.2 hPa | 0 mm | - | - | - |
| 1778064498 | 26.11° C | 82% | 1018.3 hPa | 0 mm | - | - | - |
| 1778064196 | 25.56° C | 83% | 1018.1 hPa | 0 mm | - | - | - |
| 1778062986 | 25° C | 85% | 1017.9 hPa | 0 mm | - | - | - |
| 1778062078 | 25° C | 85% | 1017.9 hPa | 0 mm | - | - | - |
| 1778061775 | 25° C | 85% | 1017.7 hPa | 0 mm | - | - | - |
| 1778060866 | 25° C | 85% | 1017.9 hPa | 0 mm | - | - | - |
| 1778060565 | 25° C | 85% | 1017.8 hPa | 0 mm | - | - | - |
| 1778060263 | 25° C | 85% | 1017.8 hPa | 0 mm | - | - | - |
| 1778059960 | 25° C | 84% | 1017.6 hPa | 0 mm | - | - | - |
| 1778058750 | 25° C | 84% | 1017.7 hPa | 0 mm | - | - | - |
| 1778058447 | 25° C | 84% | 1017.5 hPa | 0 mm | - | - | - |
| 1778058144 | 25° C | 84% | 1017.7 hPa | 0 mm | - | - | - |
| 1778057841 | 25° C | 84% | 1017.6 hPa | 0 mm | - | - | - |
| 1778057234 | 25.56° C | 84% | 1017.6 hPa | 0 mm | - | - | - |
| 1778056930 | 25.56° C | 84% | 1017.5 hPa | 0 mm | - | - | - |
| 1778055118 | 25.56° C | 83% | 1017.2 hPa | 0 mm | - | - | - |
| 1778054512 | 25.56° C | 83% | 1017 hPa | 0 mm | - | - | - |
| 1778054210 | 25.56° C | 83% | 1017.2 hPa | 0 mm | - | - | - |
| 1778053906 | 25.56° C | 83% | 1017.1 hPa | 0 mm | - | - | - |
| 1778053301 | 25.56° C | 83% | 1017.2 hPa | 0 mm | - | - | - |
* Rain latest hour (hover to see other rain measurements)
** Current wind speed in m/s (hover to see current wind gust speed)